Year,Month,Day,Hour,Minute,Value (Times are PST for temperature in C)
2007,05,22,00,00,10.10
2007,05,22,00,01,10.10
2007,05,22,00,02,10.10
2007,05,22,00,03,10.10
2007,05,22,00,04,10.10
2007,05,22,00,05,10.10
2007,05,22,00,06,10.10
2007,05,22,00,07,10.10
2007,05,22,00,08,10.10
2007,05,22,00,09,10.10
2007,05,22,00,10,10.10
2007,05,22,00,11,10.10
2007,05,22,00,12,10.10
2007,05,22,00,13,10.10
2007,05,22,00,14,10.10
2007,05,22,00,15,10.00
2007,05,22,00,16,9.90
2007,05,22,00,17,9.90
2007,05,22,00,18,9.90
2007,05,22,00,19,9.90
2007,05,22,00,20,10.00
2007,05,22,00,21,10.10
2007,05,22,00,22,10.10
2007,05,22,00,23,10.10
2007,05,22,00,24,10.10
2007,05,22,00,25,10.10
2007,05,22,00,26,10.10
2007,05,22,00,27,10.10
2007,05,22,00,28,10.10
2007,05,22,00,29,10.10
2007,05,22,00,30,10.10
2007,05,22,00,31,10.10
2007,05,22,00,32,10.10
2007,05,22,00,33,10.10
2007,05,22,00,34,10.10
2007,05,22,00,35,10.10
2007,05,22,00,36,10.10
2007,05,22,00,37,10.10
2007,05,22,00,38,10.10
2007,05,22,00,39,10.10
2007,05,22,00,40,10.10
2007,05,22,00,41,10.10
2007,05,22,00,42,10.10
2007,05,22,00,43,10.10
2007,05,22,00,44,10.10
2007,05,22,00,45,10.10
2007,05,22,00,46,10.00
2007,05,22,00,47,9.90
2007,05,22,00,48,9.90
2007,05,22,00,49,9.90
2007,05,22,00,50,9.90
2007,05,22,00,51,9.90
2007,05,22,00,52,9.90
2007,05,22,00,53,9.90
2007,05,22,00,54,9.90
2007,05,22,00,55,9.90
2007,05,22,00,56,9.90
2007,05,22,00,57,9.90
2007,05,22,00,58,9.90
2007,05,22,00,59,9.90
2007,05,22,01,00,9.80
2007,05,22,01,01,9.80
2007,05,22,01,02,9.80
2007,05,22,01,03,9.80
2007,05,22,01,04,9.80
2007,05,22,01,05,9.80
2007,05,22,01,06,9.80
2007,05,22,01,07,9.80
2007,05,22,01,08,9.70
2007,05,22,01,09,9.70
2007,05,22,01,10,9.70
2007,05,22,01,11,9.70
2007,05,22,01,12,9.70
2007,05,22,01,13,9.70
2007,05,22,01,14,9.70
2007,05,22,01,15,9.70
2007,05,22,01,16,9.70
2007,05,22,01,17,9.70
2007,05,22,01,18,9.60
2007,05,22,01,19,9.60
2007,05,22,01,20,9.60
2007,05,22,01,21,9.60
2007,05,22,01,22,9.60
2007,05,22,01,23,9.60
2007,05,22,01,24,9.60
2007,05,22,01,25,9.60
2007,05,22,01,26,9.50
2007,05,22,01,27,9.50
2007,05,22,01,28,9.50
2007,05,22,01,29,9.50
2007,05,22,01,30,9.50
2007,05,22,01,31,9.50
2007,05,22,01,32,9.50
2007,05,22,01,33,9.40
2007,05,22,01,34,9.40
2007,05,22,01,35,9.40
2007,05,22,01,36,9.40
2007,05,22,01,37,9.40
2007,05,22,01,38,9.30
2007,05,22,01,39,9.30
2007,05,22,01,40,9.30
2007,05,22,01,41,9.30
2007,05,22,01,42,9.30
2007,05,22,01,43,9.30
2007,05,22,01,44,9.20
2007,05,22,01,45,9.20
2007,05,22,01,46,9.20
2007,05,22,01,47,9.20
2007,05,22,01,48,9.20
2007,05,22,01,49,9.20
2007,05,22,01,50,9.20
2007,05,22,01,51,9.20
2007,05,22,01,52,9.20
2007,05,22,01,53,9.20
2007,05,22,01,54,9.20
2007,05,22,01,55,9.20
2007,05,22,01,56,9.20
2007,05,22,01,57,9.20
2007,05,22,01,58,9.20
2007,05,22,01,59,9.10
2007,05,22,02,00,9.10
2007,05,22,02,01,9.10
2007,05,22,02,02,9.10
2007,05,22,02,03,9.10
2007,05,22,02,04,9.10
2007,05,22,02,05,9.10
2007,05,22,02,06,9.10
2007,05,22,02,07,9.10
2007,05,22,02,08,9.00
2007,05,22,02,09,9.00
2007,05,22,02,10,9.00
2007,05,22,02,11,9.00
2007,05,22,02,12,9.00
2007,05,22,02,13,8.90
2007,05,22,02,14,8.90
2007,05,22,02,15,8.90
2007,05,22,02,16,8.90
2007,05,22,02,17,8.90
2007,05,22,02,18,8.90
2007,05,22,02,19,8.90
2007,05,22,02,20,8.80
2007,05,22,02,21,8.80
2007,05,22,02,22,8.80
2007,05,22,02,23,8.80
2007,05,22,02,24,8.70
2007,05,22,02,25,8.70
2007,05,22,02,26,8.70
2007,05,22,02,27,8.70
2007,05,22,02,28,8.70
2007,05,22,02,29,8.70
2007,05,22,02,30,8.60
2007,05,22,02,31,8.60
2007,05,22,02,32,8.50
2007,05,22,02,33,8.50
2007,05,22,02,34,8.50
2007,05,22,02,35,8.50
2007,05,22,02,36,8.50
2007,05,22,02,37,8.40
2007,05,22,02,38,8.40
2007,05,22,02,39,8.40
2007,05,22,02,40,8.30
2007,05,22,02,41,8.30
2007,05,22,02,42,8.30
2007,05,22,02,43,8.20
2007,05,22,02,44,8.20
2007,05,22,02,45,8.20
2007,05,22,02,46,8.20
2007,05,22,02,47,8.20
2007,05,22,02,48,8.10
2007,05,22,02,49,8.10
2007,05,22,02,50,8.10
2007,05,22,02,51,8.00
2007,05,22,02,52,8.00
2007,05,22,02,53,7.90
2007,05,22,02,54,7.90
2007,05,22,02,55,7.80
2007,05,22,02,56,7.80
2007,05,22,02,57,7.80
2007,05,22,02,58,7.80
2007,05,22,02,59,7.70
2007,05,22,03,00,7.70
2007,05,22,03,01,7.60
2007,05,22,03,02,7.60
2007,05,22,03,03,7.50
2007,05,22,03,04,7.50
2007,05,22,03,05,7.50
2007,05,22,03,06,7.40
2007,05,22,03,07,7.40
2007,05,22,03,08,7.30
2007,05,22,03,09,7.30
2007,05,22,03,10,7.30
2007,05,22,03,11,7.30
2007,05,22,03,12,7.30
2007,05,22,03,13,7.30
2007,05,22,03,14,7.30
2007,05,22,03,15,7.30
2007,05,22,03,16,7.30
2007,05,22,03,17,7.30
2007,05,22,03,18,7.30
2007,05,22,03,19,7.30
2007,05,22,03,20,7.30
2007,05,22,03,21,7.30
2007,05,22,03,22,7.30
2007,05,22,03,23,7.30
2007,05,22,03,24,7.20
2007,05,22,03,25,7.20
2007,05,22,03,26,7.20
2007,05,22,03,27,7.10
2007,05,22,03,28,7.10
2007,05,22,03,29,7.10
2007,05,22,03,30,7.00
2007,05,22,03,31,7.00
2007,05,22,03,32,7.00
2007,05,22,03,33,6.90
2007,05,22,03,34,6.90
2007,05,22,03,35,6.90
2007,05,22,03,36,6.90
2007,05,22,03,37,6.90
2007,05,22,03,38,6.90
2007,05,22,03,39,6.90
2007,05,22,03,40,6.90
2007,05,22,03,41,6.90
2007,05,22,03,42,6.90
2007,05,22,03,43,6.90
2007,05,22,03,44,6.90
2007,05,22,03,45,6.90
2007,05,22,03,46,6.90
2007,05,22,03,47,6.90
2007,05,22,03,48,6.80
2007,05,22,03,49,6.80
2007,05,22,03,50,6.80
2007,05,22,03,51,6.80
2007,05,22,03,52,6.80
2007,05,22,03,53,6.80
2007,05,22,03,54,6.70
2007,05,22,03,55,6.70
2007,05,22,03,56,6.70
2007,05,22,03,57,6.80
2007,05,22,03,58,6.80
2007,05,22,03,59,6.80
2007,05,22,04,00,6.80
2007,05,22,04,01,6.80
2007,05,22,04,02,6.80
2007,05,22,04,03,6.80
2007,05,22,04,04,6.70
2007,05,22,04,05,6.70
2007,05,22,04,06,6.70
2007,05,22,04,07,6.70
2007,05,22,04,08,6.70
2007,05,22,04,09,6.70
2007,05,22,04,10,6.70
2007,05,22,04,11,6.70
2007,05,22,04,12,6.60
2007,05,22,04,13,6.60
2007,05,22,04,14,6.60
2007,05,22,04,15,6.60
2007,05,22,04,16,6.60
2007,05,22,04,17,6.60
2007,05,22,04,18,6.60
2007,05,22,04,19,6.60
2007,05,22,04,20,6.60
2007,05,22,04,21,6.60
2007,05,22,04,22,6.60
2007,05,22,04,23,6.60
2007,05,22,04,24,6.60
2007,05,22,04,25,6.60
2007,05,22,04,26,6.60
2007,05,22,04,27,6.60
2007,05,22,04,28,6.60
2007,05,22,04,29,6.60
2007,05,22,04,30,6.60
2007,05,22,04,31,6.60
2007,05,22,04,32,6.50
2007,05,22,04,33,6.40
2007,05,22,04,34,6.40
2007,05,22,04,35,6.40
2007,05,22,04,36,6.40
2007,05,22,04,37,6.30
2007,05,22,04,38,6.30
2007,05,22,04,39,6.30
2007,05,22,04,40,6.20
2007,05,22,04,41,6.20
2007,05,22,04,42,6.20
2007,05,22,04,43,6.20
2007,05,22,04,44,6.20
2007,05,22,04,45,6.20
2007,05,22,04,46,6.20
2007,05,22,04,47,6.20
2007,05,22,04,48,6.20
2007,05,22,04,49,6.20
2007,05,22,04,50,6.20
2007,05,22,04,51,6.20
2007,05,22,04,52,6.10
2007,05,22,04,53,6.10
2007,05,22,04,54,6.10
2007,05,22,04,55,6.10
2007,05,22,04,56,6.10
2007,05,22,04,57,6.00
2007,05,22,04,58,6.00
2007,05,22,04,59,6.00
2007,05,22,05,00,6.00
2007,05,22,05,01,6.00
2007,05,22,05,02,6.00
2007,05,22,05,03,6.00
2007,05,22,05,04,6.00
2007,05,22,05,05,6.00
2007,05,22,05,06,6.00
2007,05,22,05,07,5.90
2007,05,22,05,08,5.90
2007,05,22,05,09,5.90
2007,05,22,05,10,5.80
2007,05,22,05,11,5.80
2007,05,22,05,12,5.80
2007,05,22,05,13,5.80
2007,05,22,05,14,5.80
2007,05,22,05,15,5.80
2007,05,22,05,16,5.80
2007,05,22,05,17,5.80
2007,05,22,05,18,5.80
2007,05,22,05,19,5.80
2007,05,22,05,20,5.80
2007,05,22,05,21,5.80
2007,05,22,05,22,5.90
2007,05,22,05,23,5.90
2007,05,22,05,24,5.90
2007,05,22,05,25,5.90
2007,05,22,05,26,6.00
2007,05,22,05,27,6.00
2007,05,22,05,28,6.00
2007,05,22,05,29,6.00
2007,05,22,05,30,6.00
2007,05,22,05,31,6.00
2007,05,22,05,32,6.00
2007,05,22,05,33,6.00
2007,05,22,05,34,6.00
2007,05,22,05,35,6.00
2007,05,22,05,36,6.00
2007,05,22,05,37,5.90
2007,05,22,05,38,5.90
2007,05,22,05,39,5.90
2007,05,22,05,40,5.80
2007,05,22,05,41,5.80
2007,05,22,05,42,5.80
2007,05,22,05,43,5.80
2007,05,22,05,44,5.80
2007,05,22,05,45,5.70
2007,05,22,05,46,5.70
2007,05,22,05,47,5.70
2007,05,22,05,48,5.70
2007,05,22,05,49,5.80
2007,05,22,05,50,5.80
2007,05,22,05,51,5.80
2007,05,22,05,52,5.80
2007,05,22,05,53,5.80
2007,05,22,05,54,5.80
2007,05,22,05,55,5.80
2007,05,22,05,56,5.80
2007,05,22,05,57,5.80
2007,05,22,05,58,5.80
2007,05,22,05,59,5.80
2007,05,22,06,00,5.80
2007,05,22,06,01,5.80
2007,05,22,06,02,5.80
2007,05,22,06,03,5.80
2007,05,22,06,04,5.90
2007,05,22,06,05,5.90
2007,05,22,06,06,5.90
2007,05,22,06,07,6.00
2007,05,22,06,08,6.00
2007,05,22,06,09,6.00
2007,05,22,06,10,6.10
2007,05,22,06,11,6.10
2007,05,22,06,12,6.10
2007,05,22,06,13,6.20
2007,05,22,06,14,6.20
2007,05,22,06,15,6.30
2007,05,22,06,16,6.30
2007,05,22,06,17,6.40
2007,05,22,06,18,6.40
2007,05,22,06,19,6.40
2007,05,22,06,20,6.40
2007,05,22,06,21,6.40
2007,05,22,06,22,6.50
2007,05,22,06,23,6.60
2007,05,22,06,24,6.60
2007,05,22,06,25,6.60
2007,05,22,06,26,6.60
2007,05,22,06,27,6.60
2007,05,22,06,28,6.70
2007,05,22,06,29,6.70
2007,05,22,06,30,6.70
2007,05,22,06,31,6.80
2007,05,22,06,32,6.80
2007,05,22,06,33,6.80
2007,05,22,06,34,6.80
2007,05,22,06,35,6.80
2007,05,22,06,36,6.80
2007,05,22,06,37,6.80
2007,05,22,06,38,6.90
2007,05,22,06,39,6.90
2007,05,22,06,40,6.90
2007,05,22,06,41,6.90
2007,05,22,06,42,6.90
2007,05,22,06,43,7.00
2007,05,22,06,44,7.00
2007,05,22,06,45,7.00
2007,05,22,06,46,7.00
2007,05,22,06,47,7.00
2007,05,22,06,48,7.10
2007,05,22,06,49,7.10
2007,05,22,06,50,7.10
2007,05,22,06,51,7.10
2007,05,22,06,52,7.20
2007,05,22,06,53,7.20
2007,05,22,06,54,7.20
2007,05,22,06,55,7.20
2007,05,22,06,56,7.30
2007,05,22,06,57,7.30
2007,05,22,06,58,7.30
2007,05,22,06,59,7.30
2007,05,22,07,00,7.30
2007,05,22,07,01,7.30
2007,05,22,07,02,7.30
2007,05,22,07,03,7.40
2007,05,22,07,04,7.40
2007,05,22,07,05,7.50
2007,05,22,07,06,7.50
2007,05,22,07,07,7.60
2007,05,22,07,08,7.60
2007,05,22,07,09,7.60
2007,05,22,07,10,7.70
2007,05,22,07,11,7.70
2007,05,22,07,12,7.80
2007,05,22,07,13,7.80
2007,05,22,07,14,7.80
2007,05,22,07,15,7.80
2007,05,22,07,16,7.80
2007,05,22,07,17,7.90
2007,05,22,07,18,7.90
2007,05,22,07,19,8.00
2007,05,22,07,20,8.00
2007,05,22,07,21,8.00
2007,05,22,07,22,8.10
2007,05,22,07,23,8.20
2007,05,22,07,24,8.20
2007,05,22,07,25,8.20
2007,05,22,07,26,8.20
2007,05,22,07,27,8.30
2007,05,22,07,28,8.40
2007,05,22,07,29,8.40
2007,05,22,07,30,8.40
2007,05,22,07,31,8.50
2007,05,22,07,32,8.50
2007,05,22,07,33,8.60
2007,05,22,07,34,8.60
2007,05,22,07,35,8.70
2007,05,22,07,36,8.70
2007,05,22,07,37,8.70
2007,05,22,07,38,8.80
2007,05,22,07,39,8.80
2007,05,22,07,40,8.90
2007,05,22,07,41,8.90
2007,05,22,07,42,8.90
2007,05,22,07,43,9.00
2007,05,22,07,44,9.00
2007,05,22,07,45,9.10
2007,05,22,07,46,9.10
2007,05,22,07,47,9.20
2007,05,22,07,48,9.20
2007,05,22,07,49,9.20
2007,05,22,07,50,9.30
2007,05,22,07,51,9.30
2007,05,22,07,52,9.30
2007,05,22,07,53,9.40
2007,05,22,07,54,9.40
2007,05,22,07,55,9.40
2007,05,22,07,56,9.50
2007,05,22,07,57,9.50
2007,05,22,07,58,9.50
2007,05,22,07,59,9.60
2007,05,22,08,00,9.70
2007,05,22,08,01,9.70
2007,05,22,08,02,9.70
2007,05,22,08,03,9.70
2007,05,22,08,04,9.80
2007,05,22,08,05,9.90
2007,05,22,08,06,9.90
2007,05,22,08,07,10.00
2007,05,22,08,08,10.10
2007,05,22,08,09,10.20
2007,05,22,08,10,10.30
2007,05,22,08,11,10.30
2007,05,22,08,12,10.40
2007,05,22,08,13,10.40
2007,05,22,08,14,10.50
2007,05,22,08,15,10.60
2007,05,22,08,16,10.60
2007,05,22,08,17,10.60
2007,05,22,08,18,10.60
2007,05,22,08,19,10.70
2007,05,22,08,20,10.70
2007,05,22,08,21,10.80
2007,05,22,08,22,10.80
2007,05,22,08,23,10.80
2007,05,22,08,24,10.90
2007,05,22,08,25,10.90
2007,05,22,08,26,10.90
2007,05,22,08,27,10.90
2007,05,22,08,28,10.90
2007,05,22,08,29,11.00
2007,05,22,08,30,11.10
2007,05,22,08,31,11.10
2007,05,22,08,32,11.10
2007,05,22,08,33,11.10
2007,05,22,08,34,11.10
2007,05,22,08,35,11.20
2007,05,22,08,36,11.30
2007,05,22,08,37,11.30
2007,05,22,08,38,11.30
2007,05,22,08,39,11.40
2007,05,22,08,40,11.40
2007,05,22,08,41,11.40
2007,05,22,08,42,11.40
2007,05,22,08,43,11.40
2007,05,22,08,44,11.40
2007,05,22,08,45,11.40
2007,05,22,08,46,11.40
2007,05,22,08,47,11.50
2007,05,22,08,48,11.60
2007,05,22,08,49,11.60
2007,05,22,08,50,11.60
2007,05,22,08,51,11.60
2007,05,22,08,52,11.60
2007,05,22,08,53,11.60
2007,05,22,08,54,11.70
2007,05,22,08,55,11.70
2007,05,22,08,56,11.80
2007,05,22,08,57,11.80
2007,05,22,08,58,11.80
2007,05,22,08,59,11.80
2007,05,22,09,00,11.80
2007,05,22,09,01,11.90
2007,05,22,09,02,11.90
2007,05,22,09,03,12.00
2007,05,22,09,04,12.00
2007,05,22,09,05,12.00
2007,05,22,09,06,12.10
2007,05,22,09,07,12.10
2007,05,22,09,08,12.10
2007,05,22,09,09,12.20
2007,05,22,09,10,12.20
2007,05,22,09,11,12.30
2007,05,22,09,12,12.30
2007,05,22,09,13,12.30
2007,05,22,09,14,12.30
2007,05,22,09,15,12.40
2007,05,22,09,16,12.50
2007,05,22,09,17,12.50
2007,05,22,09,18,12.60
2007,05,22,09,19,12.70
2007,05,22,09,20,12.70
2007,05,22,09,21,12.80
2007,05,22,09,22,12.80
2007,05,22,09,23,12.90
2007,05,22,09,24,12.90
2007,05,22,09,25,13.00
2007,05,22,09,26,13.10
2007,05,22,09,27,13.10
2007,05,22,09,28,13.20
2007,05,22,09,29,13.30
2007,05,22,09,30,13.30
2007,05,22,09,31,13.30
2007,05,22,09,32,13.20
2007,05,22,09,33,13.20
2007,05,22,09,34,13.30
2007,05,22,09,35,13.30
2007,05,22,09,36,13.30
2007,05,22,09,37,13.30
2007,05,22,09,38,13.40
2007,05,22,09,39,13.50
2007,05,22,09,40,13.60
2007,05,22,09,41,13.70
2007,05,22,09,42,13.80
2007,05,22,09,43,13.80
2007,05,22,09,44,13.60
2007,05,22,09,45,13.60
2007,05,22,09,46,13.60
2007,05,22,09,47,13.60
2007,05,22,09,48,13.60
2007,05,22,09,49,13.70
2007,05,22,09,50,13.70
2007,05,22,09,51,13.80
2007,05,22,09,52,13.80
2007,05,22,09,53,13.80
2007,05,22,09,54,13.70
2007,05,22,09,55,13.70
2007,05,22,09,56,13.70
2007,05,22,09,57,13.70
2007,05,22,09,58,13.70
2007,05,22,09,59,13.80
2007,05,22,10,00,13.90
2007,05,22,10,01,13.90
2007,05,22,10,02,13.90
2007,05,22,10,03,13.90
2007,05,22,10,04,13.80
2007,05,22,10,05,13.60
2007,05,22,10,06,13.50
2007,05,22,10,07,13.30
2007,05,22,10,08,13.30
2007,05,22,10,09,13.30
2007,05,22,10,10,13.20
2007,05,22,10,11,13.10
2007,05,22,10,12,12.90
2007,05,22,10,13,12.70
2007,05,22,10,14,12.50
2007,05,22,10,15,12.30
2007,05,22,10,16,12.20
2007,05,22,10,17,12.00
2007,05,22,10,18,12.00
2007,05,22,10,19,11.80
2007,05,22,10,20,11.80
2007,05,22,10,21,11.80
2007,05,22,10,22,11.70
2007,05,22,10,23,11.70
2007,05,22,10,24,11.70
2007,05,22,10,25,11.80
2007,05,22,10,26,11.80
2007,05,22,10,27,11.80
2007,05,22,10,28,11.90
2007,05,22,10,29,12.00
2007,05,22,10,30,12.00
2007,05,22,10,31,12.00
2007,05,22,10,32,12.10
2007,05,22,10,33,12.10
2007,05,22,10,34,12.10
2007,05,22,10,35,12.20
2007,05,22,10,36,12.20
2007,05,22,10,37,12.20
2007,05,22,10,38,12.30
2007,05,22,10,39,12.30
2007,05,22,10,40,12.30
2007,05,22,10,41,12.30
2007,05,22,10,42,12.20
2007,05,22,10,43,12.20
2007,05,22,10,44,12.20
2007,05,22,10,45,12.20
2007,05,22,10,46,12.10
2007,05,22,10,47,12.00
2007,05,22,10,48,11.90
2007,05,22,10,49,11.90
2007,05,22,10,50,11.90
2007,05,22,10,51,11.90
2007,05,22,10,52,11.90
2007,05,22,10,53,12.00
2007,05,22,10,54,12.00
2007,05,22,10,55,12.10
2007,05,22,10,56,12.20
2007,05,22,10,57,12.30
2007,05,22,10,58,12.40
2007,05,22,10,59,12.50
2007,05,22,11,00,12.60
2007,05,22,11,01,12.70
2007,05,22,11,02,12.70
2007,05,22,11,03,12.70
2007,05,22,11,04,12.70
2007,05,22,11,05,12.60
2007,05,22,11,06,12.50
2007,05,22,11,07,12.50
2007,05,22,11,08,12.60
2007,05,22,11,09,12.70
2007,05,22,11,10,12.70
2007,05,22,11,11,12.80
2007,05,22,11,12,12.80
2007,05,22,11,13,12.90
2007,05,22,11,14,13.00
2007,05,22,11,15,13.10
2007,05,22,11,16,13.10
2007,05,22,11,17,13.20
2007,05,22,11,18,13.30
2007,05,22,11,19,13.30
2007,05,22,11,20,13.30
2007,05,22,11,21,13.30
2007,05,22,11,22,13.40
2007,05,22,11,23,13.40
2007,05,22,11,24,13.50
2007,05,22,11,25,13.60
2007,05,22,11,26,13.70
2007,05,22,11,27,13.90
2007,05,22,11,28,14.00
2007,05,22,11,29,14.20
2007,05,22,11,30,14.20
2007,05,22,11,31,14.30
2007,05,22,11,32,14.30
2007,05,22,11,33,14.30
2007,05,22,11,34,14.30
2007,05,22,11,35,14.20
2007,05,22,11,36,14.10
2007,05,22,11,37,14.00
2007,05,22,11,38,14.00
2007,05,22,11,39,13.70
2007,05,22,11,40,13.60
2007,05,22,11,41,13.50
2007,05,22,11,42,13.40
2007,05,22,11,43,13.30
2007,05,22,11,44,13.20
2007,05,22,11,45,13.20
2007,05,22,11,46,13.30
2007,05,22,11,47,13.30
2007,05,22,11,48,13.30
2007,05,22,11,49,13.30
2007,05,22,11,50,13.30
2007,05,22,11,51,13.40
2007,05,22,11,52,13.40
2007,05,22,11,53,13.40
2007,05,22,11,54,13.50
2007,05,22,11,55,13.60
2007,05,22,11,56,13.70
2007,05,22,11,57,13.80
2007,05,22,11,58,13.90
2007,05,22,11,59,14.00
2007,05,22,12,00,14.00
2007,05,22,12,01,14.00
2007,05,22,12,02,14.00
2007,05,22,12,03,14.10
2007,05,22,12,04,14.10
2007,05,22,12,05,14.00
2007,05,22,12,06,13.90
2007,05,22,12,07,13.60
2007,05,22,12,08,13.40
2007,05,22,12,09,13.30
2007,05,22,12,10,13.20
2007,05,22,12,11,13.20
2007,05,22,12,12,13.30
2007,05,22,12,13,13.30
2007,05,22,12,14,13.30
2007,05,22,12,15,13.40
2007,05,22,12,16,13.50
2007,05,22,12,17,13.50
2007,05,22,12,18,13.60
2007,05,22,12,19,13.70
2007,05,22,12,20,13.70
2007,05,22,12,21,13.80
2007,05,22,12,22,13.80
2007,05,22,12,23,13.90
2007,05,22,12,24,13.90
2007,05,22,12,25,13.90
2007,05,22,12,26,13.90
2007,05,22,12,27,14.00
2007,05,22,12,28,14.00
2007,05,22,12,29,13.90
2007,05,22,12,30,13.80
2007,05,22,12,31,13.60
2007,05,22,12,32,13.50
2007,05,22,12,33,13.40
2007,05,22,12,34,13.30
2007,05,22,12,35,13.40
2007,05,22,12,36,13.30
2007,05,22,12,37,13.30
2007,05,22,12,38,13.40
2007,05,22,12,39,13.50
2007,05,22,12,40,13.50
2007,05,22,12,41,13.60
2007,05,22,12,42,13.70
2007,05,22,12,43,13.70
2007,05,22,12,44,13.70
2007,05,22,12,45,13.70
2007,05,22,12,46,13.60
2007,05,22,12,47,13.60
2007,05,22,12,48,13.50
2007,05,22,12,49,13.60
2007,05,22,12,50,13.70
2007,05,22,12,51,13.60
2007,05,22,12,52,13.60
2007,05,22,12,53,13.70
2007,05,22,12,54,13.70
2007,05,22,12,55,13.70
2007,05,22,12,56,13.70
2007,05,22,12,57,13.50
2007,05,22,12,58,13.40
2007,05,22,12,59,13.30
2007,05,22,13,00,13.30
2007,05,22,13,01,13.30
2007,05,22,13,02,13.30
2007,05,22,13,03,13.40
2007,05,22,13,04,13.40
2007,05,22,13,05,13.40
2007,05,22,13,06,13.40
2007,05,22,13,07,13.50
2007,05,22,13,08,13.60
2007,05,22,13,09,13.50
2007,05,22,13,10,13.40
2007,05,22,13,11,13.30
2007,05,22,13,12,13.30
2007,05,22,13,13,13.30
2007,05,22,13,14,13.20
2007,05,22,13,15,13.20
2007,05,22,13,16,13.30
2007,05,22,13,17,13.40
2007,05,22,13,18,13.40
2007,05,22,13,19,13.30
2007,05,22,13,20,13.30
2007,05,22,13,21,13.40
2007,05,22,13,22,13.50
2007,05,22,13,23,13.40
2007,05,22,13,24,13.40
2007,05,22,13,25,13.40
2007,05,22,13,26,13.50
2007,05,22,13,27,13.70
2007,05,22,13,28,13.80
2007,05,22,13,29,13.90
2007,05,22,13,30,13.90
2007,05,22,13,31,14.00
2007,05,22,13,32,14.00
2007,05,22,13,33,14.10
2007,05,22,13,34,14.10
2007,05,22,13,35,14.10
2007,05,22,13,36,14.00
2007,05,22,13,37,13.90
2007,05,22,13,38,13.80
2007,05,22,13,39,13.80
2007,05,22,13,40,13.70
2007,05,22,13,41,13.80
2007,05,22,13,42,13.80
2007,05,22,13,43,13.80
2007,05,22,13,44,13.70
2007,05,22,13,45,13.80
2007,05,22,13,46,13.80
2007,05,22,13,47,13.80
2007,05,22,13,48,13.80
2007,05,22,13,49,13.80
2007,05,22,13,50,13.90
2007,05,22,13,51,14.10
2007,05,22,13,52,14.30
2007,05,22,13,53,14.50
2007,05,22,13,54,14.50
2007,05,22,13,55,14.20
2007,05,22,13,56,14.00
2007,05,22,13,57,13.90
2007,05,22,13,58,14.00
2007,05,22,13,59,14.10
2007,05,22,14,00,14.20
2007,05,22,14,01,14.00
2007,05,22,14,02,14.00
2007,05,22,14,03,14.00
2007,05,22,14,04,13.90
2007,05,22,14,05,13.90
2007,05,22,14,06,14.00
2007,05,22,14,07,14.10
2007,05,22,14,08,14.20
2007,05,22,14,09,14.20
2007,05,22,14,10,14.20
2007,05,22,14,11,14.20
2007,05,22,14,12,14.20
2007,05,22,14,13,14.30
2007,05,22,14,14,14.30
2007,05,22,14,15,14.40
2007,05,22,14,16,14.40
2007,05,22,14,17,14.50
2007,05,22,14,18,14.50
2007,05,22,14,19,14.60
2007,05,22,14,20,14.60
2007,05,22,14,21,14.60
2007,05,22,14,22,14.70
2007,05,22,14,23,14.70
2007,05,22,14,24,14.80
2007,05,22,14,25,14.80
2007,05,22,14,26,14.60
2007,05,22,14,27,14.40
2007,05,22,14,28,14.20
2007,05,22,14,29,14.00
2007,05,22,14,30,13.80
2007,05,22,14,31,13.80
2007,05,22,14,32,13.70
2007,05,22,14,33,13.60
2007,05,22,14,34,13.50
2007,05,22,14,35,13.60
2007,05,22,14,36,13.60
2007,05,22,14,37,13.70
2007,05,22,14,38,13.80
2007,05,22,14,39,13.90
2007,05,22,14,40,14.00
2007,05,22,14,41,14.00
2007,05,22,14,42,14.00
2007,05,22,14,43,13.90
2007,05,22,14,44,14.00
2007,05,22,14,45,14.00
2007,05,22,14,46,13.90
2007,05,22,14,47,14.00
2007,05,22,14,48,14.00
2007,05,22,14,49,14.00
2007,05,22,14,50,14.00
2007,05,22,14,51,14.00
2007,05,22,14,52,13.90
2007,05,22,14,53,13.90
2007,05,22,14,54,13.90
2007,05,22,14,55,13.90
2007,05,22,14,56,13.80
2007,05,22,14,57,13.90
2007,05,22,14,58,14.00
2007,05,22,14,59,14.00
2007,05,22,15,00,14.00
2007,05,22,15,01,14.00
2007,05,22,15,02,14.10
2007,05,22,15,03,14.10
2007,05,22,15,04,14.20
2007,05,22,15,05,14.30
2007,05,22,15,06,14.40
2007,05,22,15,07,14.60
2007,05,22,15,08,14.70
2007,05,22,15,09,14.80
2007,05,22,15,10,14.80
2007,05,22,15,11,14.70
2007,05,22,15,12,14.60
2007,05,22,15,13,14.70
2007,05,22,15,14,14.70
2007,05,22,15,15,14.80
2007,05,22,15,16,14.80
2007,05,22,15,17,14.90
2007,05,22,15,18,14.80
2007,05,22,15,19,14.70
2007,05,22,15,20,14.60
2007,05,22,15,21,14.70
2007,05,22,15,22,14.80
2007,05,22,15,23,15.00
2007,05,22,15,24,15.10
2007,05,22,15,25,15.10
2007,05,22,15,26,15.00
2007,05,22,15,27,14.90
2007,05,22,15,28,15.00
2007,05,22,15,29,15.00
2007,05,22,15,30,15.10
2007,05,22,15,31,15.10
2007,05,22,15,32,15.20
2007,05,22,15,33,15.20
2007,05,22,15,34,15.30
2007,05,22,15,35,15.30
2007,05,22,15,36,15.30
2007,05,22,15,37,15.30
2007,05,22,15,38,15.30
2007,05,22,15,39,15.30
2007,05,22,15,40,15.30
2007,05,22,15,41,15.30
2007,05,22,15,42,15.30
2007,05,22,15,43,15.30
2007,05,22,15,44,15.30
2007,05,22,15,45,15.20
2007,05,22,15,46,15.30
2007,05,22,15,47,15.30
2007,05,22,15,48,15.40
2007,05,22,15,49,15.40
2007,05,22,15,50,15.30
2007,05,22,15,51,15.30
2007,05,22,15,52,15.10
2007,05,22,15,53,14.90
2007,05,22,15,54,14.80
2007,05,22,15,55,14.80
2007,05,22,15,56,15.00
2007,05,22,15,57,15.10
2007,05,22,15,58,15.10
2007,05,22,15,59,15.00
2007,05,22,16,00,14.90
2007,05,22,16,01,14.80
2007,05,22,16,02,14.80
2007,05,22,16,03,14.70
2007,05,22,16,04,14.60
2007,05,22,16,05,14.70
2007,05,22,16,06,14.70
2007,05,22,16,07,14.70
2007,05,22,16,08,14.80
2007,05,22,16,09,14.80
2007,05,22,16,10,14.80
2007,05,22,16,11,14.90
2007,05,22,16,12,15.00
2007,05,22,16,13,15.10
2007,05,22,16,14,15.20
2007,05,22,16,15,15.30
2007,05,22,16,16,15.40
2007,05,22,16,17,15.50
2007,05,22,16,18,15.50
2007,05,22,16,19,15.50
2007,05,22,16,20,15.40
2007,05,22,16,21,15.20
2007,05,22,16,22,15.00
2007,05,22,16,23,14.90
2007,05,22,16,24,14.80
2007,05,22,16,25,14.70
2007,05,22,16,26,14.70
2007,05,22,16,27,14.80
2007,05,22,16,28,14.80
2007,05,22,16,29,14.80
2007,05,22,16,30,14.80
2007,05,22,16,31,14.80
2007,05,22,16,32,14.70
2007,05,22,16,33,14.80
2007,05,22,16,34,14.90
2007,05,22,16,35,14.90
2007,05,22,16,36,15.00
2007,05,22,16,37,15.10
2007,05,22,16,38,15.30
2007,05,22,16,39,15.40
2007,05,22,16,40,15.60
2007,05,22,16,41,15.80
2007,05,22,16,42,15.80
2007,05,22,16,43,15.70
2007,05,22,16,44,15.80
2007,05,22,16,45,15.90
2007,05,22,16,46,16.10
2007,05,22,16,47,16.10
2007,05,22,16,48,16.10
2007,05,22,16,49,16.00
2007,05,22,16,50,15.90
2007,05,22,16,51,15.70
2007,05,22,16,52,15.60
2007,05,22,16,53,15.60
2007,05,22,16,54,15.60
2007,05,22,16,55,15.60
2007,05,22,16,56,15.60
2007,05,22,16,57,15.70
2007,05,22,16,58,15.80
2007,05,22,16,59,15.80
2007,05,22,17,00,15.80
2007,05,22,17,01,15.80
2007,05,22,17,02,15.70
2007,05,22,17,03,15.70
2007,05,22,17,04,15.80
2007,05,22,17,05,15.80
2007,05,22,17,06,15.80
2007,05,22,17,07,15.80
2007,05,22,17,08,15.90
2007,05,22,17,09,16.00
2007,05,22,17,10,16.10
2007,05,22,17,11,16.10
2007,05,22,17,12,16.10
2007,05,22,17,13,16.10
2007,05,22,17,14,16.10
2007,05,22,17,15,15.90
2007,05,22,17,16,15.80
2007,05,22,17,17,15.80
2007,05,22,17,18,15.80
2007,05,22,17,19,15.80
2007,05,22,17,20,15.80
2007,05,22,17,21,15.80
2007,05,22,17,22,15.80
2007,05,22,17,23,15.80
2007,05,22,17,24,15.80
2007,05,22,17,25,15.90
2007,05,22,17,26,15.90
2007,05,22,17,27,15.80
2007,05,22,17,28,15.80
2007,05,22,17,29,15.80
2007,05,22,17,30,15.80
2007,05,22,17,31,15.80
2007,05,22,17,32,15.90
2007,05,22,17,33,16.10
2007,05,22,17,34,16.20
2007,05,22,17,35,16.30
2007,05,22,17,36,16.30
2007,05,22,17,37,16.30
2007,05,22,17,38,16.20